N9AZZ Weather Reports


time (UTC)temp
C
wind
direction
speed
KPH
gust
KPH
rain 1hr
cm
rain 24hr
cm
rain mn
cm
humidity
%
barometer
mb
20260505091526 18 76 3.2 14.5 0.00 0.00 0.00 67 1007.2
20260505091011 19 108 3.2 11.3 0.00 0.00 0.00 67 1007.3
20260505090510 19 146 3.2 9.7 0.00 0.00 0.00 67 1007.5
20260505090025 18 99 3.2 9.7 0.00 0.00 0.00 66 1007.5
20260505085510 19 105 1.6 8.0 0.00 0.00 0.00 67 1007.5
20260505085014 19 223 3.2 12.9 0.00 0.00 0.00 66 1007.4
20260505084537 18 257 3.2 12.9 0.00 0.00 0.00 66 1007.4
20260505084009 18 64 1.6 8.0 0.00 0.00 0.00 67 1007.4
20260505083509 18 230 3.2 8.0 0.00 0.00 0.00 66 1007.3
20260505083029 18 275 1.6 11.3 0.00 0.00 0.00 67 1007.4
20260505082511 18 222 3.2 11.3 0.00 0.00 0.00 66 1007.3
20260505082009 18 99 1.6 12.9 0.00 0.00 0.00 66 1007.3
20260505081527 18 174 3.2 12.9 0.00 0.00 0.00 66 1007.3
20260505081011 18 219 1.6 11.3 0.00 0.00 0.00 66 1007.5
20260505080513 18 63 3.2 11.3 0.00 0.00 0.00 66 1007.6
20260505080030 18 174 3.2 11.3 0.00 0.00 0.00 66 1007.8
20260505075512 18 134 1.6 12.9 0.00 0.00 0.00 66 1007.7
20260505075013 18 211 1.6 12.9 0.00 0.00 0.00 66 1007.7
20260505074534 19 304 3.2 12.9 0.00 0.00 0.00 66 1007.5
20260505074012 18 274 3.2 6.4 0.00 0.00 0.00 66 1007.5
20260505073510 19 229 1.6 8.0 0.00 0.00 0.00 66 1007.4
20260505073037 19 157 1.6 8.0 0.00 0.00 0.00 66 1007.2
20260505072511 19 245 0.0 8.0 0.00 0.00 0.00 65 1007.2
20260505072013 19 163 3.2 8.0 0.00 0.00 0.00 65 1007.3
20260505071530 19 197 3.2 12.9 0.00 0.00 0.00 65 1007.2
20260505071015 19 219 3.2 12.9 0.00 0.00 0.00 65 1007.2
20260505070509 19 221 1.6 8.0 0.00 0.00 0.00 64 1007.4
20260505070038 19 136 1.6 8.0 0.00 0.00 0.00 64 1007.6
20260505065513 20 275 1.6 12.9 0.00 0.00 0.00 63 1007.6
20260505065012 20 286 3.2 12.9 0.00 0.00 0.00 63 1007.5
20260505064527 20 212 3.2 9.7 0.00 0.00 0.00 63 1007.5
20260505064011 20 210 3.2 11.3 0.00 0.00 0.00 62 1007.6
20260505063512 20 0 1.6 12.9 0.00 0.00 0.00 62 1007.6
20260505063030 20 114 4.8 12.9 0.00 0.00 0.00 62 1007.5
20260505062512 20 91 1.6 9.7 0.00 0.00 0.00 62 1007.4
20260505062012 20 141 1.6 9.7 0.00 0.00 0.00 61 1007.4
20260505061535 20 240 1.6 16.1 0.00 0.00 0.00 61 1007.4
20260505061010 20 286 3.2 16.1 0.00 0.00 0.00 60 1007.4
20260505060517 20 340 4.8 16.1 0.00 0.00 0.00 61 1007.4
20260505060026 20 248 3.2 9.7 0.00 0.00 0.00 60 1007.4
20260505055511 20 72 1.6 9.7 0.00 0.00 0.00 61 1007.3
20260505055012 20 210 3.2 9.7 0.00 0.00 0.00 60 1007.3
20260505054535 20 124 1.6 9.7 0.00 0.00 0.00 60 1007.3
20260505054014 21 251 3.2 17.7 0.00 0.00 0.00 60 1007.3
20260505053516 21 16 4.8 17.7 0.00 0.00 0.00 60 1007.1
20260505053031 21 207 4.8 17.7 0.00 0.00 0.00 59 1007.0
20260505052512 21 264 3.2 17.7 0.00 0.00 0.00 60 1007.0
20260505052013 21 111 4.8 17.7 0.00 0.00 0.00 59 1007.0
20260505051531 21 268 4.8 16.1 0.00 0.00 0.00 59 1007.2
20260505051013 21 217 4.8 16.1 0.00 0.00 0.00 59 1007.2
20260505050516 21 200 3.2 14.5 0.00 0.00 0.00 59 1007.3
20260505041537 21 221 4.8 14.5 0.00 0.00 0.00 59 1007.2
20260505041009 21 248 4.8 12.9 0.00 0.00 0.00 58 1007.2
20260505040511 21 187 3.2 11.3 0.00 0.00 0.00 59 1007.3
20260505040037 21 225 3.2 11.3 0.00 0.00 0.00 59 1007.2
20260505035514 21 309 3.2 12.9 0.00 0.00 0.00 59 1007.1
20260505035010 21 228 3.2 12.9 0.00 0.00 0.00 60 1007.0
20260505034528 21 241 3.2 8.0 0.00 0.00 0.00 60 1007.2
20260505034011 21 203 1.6 14.5 0.00 0.00 0.00 59 1007.2
20260505033508 21 68 4.8 14.5 0.00 0.00 0.00 59 1007.1
20260505033026 21 222 3.2 14.5 0.00 0.00 0.00 59 1007.2
20260505032507 21 75 4.8 14.5 0.00 0.00 0.00 59 1007.1
20260505032014 21 0 1.6 9.7 0.00 0.00 0.00 60 1006.9
20260505031537 21 146 3.2 9.7 0.00 0.00 0.00 59 1007.0
20260505031010 21 248 3.2 12.9 0.00 0.00 0.00 59 1006.9
20260505030510 21 265 1.6 12.9 0.00 0.00 0.00 59 1006.8
20260505030028 21 7 4.8 14.5 0.00 0.00 0.00 59 1006.8
20260505025510 21 174 4.8 14.5 0.00 0.00 0.00 59 1006.8
20260505025016 21 238 4.8 14.5 0.00 0.00 0.00 58 1006.9
20260505024528 21 207 1.6 12.9 0.00 0.00 0.00 59 1006.9
20260505024010 21 140 1.6 8.0 0.00 0.00 0.00 59 1006.9
20260505023507 21 0 3.2 8.0 0.00 0.00 0.00 58 1006.9
20260505023027 21 131 3.2 11.3 0.00 0.00 0.00 58 1006.9
20260505022508 21 128 3.2 11.3 0.00 0.00 0.00 58 1006.8
20260505022014 21 220 1.6 11.3 0.00 0.00 0.00 58 1006.7
20260505021526 21 134 0.0 9.7 0.00 0.00 0.00 59 1006.7
20260505021010 21 242 1.6 9.7 0.00 0.00 0.00 58 1006.6
20260505020510 21 229 3.2 9.7 0.00 0.00 0.00 58 1006.6
20260505020028 22 169 3.2 9.7 0.00 0.00 0.00 57 1006.6
20260505015508 22 176 3.2 9.7 0.00 0.00 0.00 57 1006.3
20260505015009 22 223 1.6 11.3 0.00 0.00 0.00 56 1006.3
20260505014534 22 208 4.8 11.3 0.00 0.00 0.00 56 1006.1
20260505014011 22 0 3.2 12.9 0.00 0.00 0.00 56 1006.2
20260505013514 22 67 3.2 12.9 0.00 0.00 0.00 56 1006.2
20260505013025 22 125 3.2 12.9 0.00 0.00 0.00 56 1006.3
20260505012509 22 104 1.6 9.7 0.00 0.00 0.00 56 1006.3
20260505012012 22 229 1.6 9.7 0.00 0.00 0.00 55 1006.2
20260505011530 22 226 4.8 9.7 0.00 0.00 0.00 55 1006.2
20260505011008 22 249 1.6 8.0 0.00 0.00 0.00 55 1006.2
20260505010509 22 94 3.2 9.7 0.00 0.00 0.00 55 1006.1
20260505010028 22 139 1.6 9.7 0.00 0.00 0.00 53 1006.1
20260505005507 23 191 1.6 16.1 0.00 0.00 0.00 53 1006.0
20260505005010 23 201 4.8 16.1 0.00 0.00 0.00 53 1005.9
20260505004530 23 145 4.8 16.1 0.00 0.00 0.00 53 1005.7
20260505004011 23 137 3.2 9.7 0.00 0.00 0.00 54 1005.8
20260505003513 23 104 4.8 11.3 0.00 0.00 0.00 53 1005.6
20260505003027 23 147 4.8 12.9 0.00 0.00 0.00 52 1005.6
20260505002509 23 248 4.8 12.9 0.00 0.00 0.00 52 1005.5
20260505002013 23 192 3.2 12.9 0.00 0.00 0.00 51 1005.5
20260505001529 23 86 4.8 12.9 0.00 0.00 0.00 50 1005.5
20260505001011 24 253 3.2 16.1 0.00 0.00 0.00 50 1005.5
20260505000514 24 102 4.8 16.1 0.00 0.00 0.00 51 1005.5
20260505000038 24 226 3.2 12.9 0.00 0.00 0.00 52 1005.5
20260504235510 24 18 4.8 12.9 0.00 0.00 0.00 49 1005.6
20260504235013 24 93 3.2 16.1 0.00 0.00 0.00 50 1005.7
20260504234528 24 207 4.8 16.1 0.00 0.00 0.00 50 1005.6
20260504234008 25 329 3.2 12.9 0.00 0.00 0.00 49 1005.7
20260504233514 24 231 3.2 12.9 0.00 0.00 0.00 50 1005.8
20260504233033 25 58 4.8 14.5 0.00 0.00 0.00 49 1005.9
20260504232513 25 301 4.8 14.5 0.00 0.00 0.00 50 1005.9
20260504232012 25 86 6.4 14.5 0.00 0.00 0.00 48 1006.0
20260504231525 25 160 3.2 11.3 0.00 0.00 0.00 48 1006.1
20260504231012 25 221 3.2 16.1 0.00 0.00 0.00 48 1006.2
20260504230511 25 205 3.2 16.1 0.00 0.00 0.00 48 1006.2
20260504230028 25 88 4.8 14.5 0.00 0.00 0.00 47 1006.1
20260504225509 25 226 4.8 12.9 0.00 0.00 0.00 48 1006.1
20260504225010 25 145 4.8 12.9 0.00 0.00 0.00 48 1006.2
20260504224526 25 115 6.4 14.5 0.00 0.00 0.00 47 1006.2
20260504224011 25 172 4.8 19.3 0.00 0.00 0.00 48 1006.3
20260504223510 25 115 3.2 19.3 0.00 0.00 0.00 47 1006.2
20260504223044 25 303 6.4 19.3 0.00 0.00 0.00 47 1005.9
20260504222511 25 205 6.4 17.7 0.00 0.00 0.00 46 1006.1
20260504222015 25 131 6.4 19.3 0.00 0.00 0.00 45 1006.5
20260504221531 25 99 4.8 19.3 0.00 0.00 0.00 46 1006.7
20260504221013 25 229 3.2 16.1 0.00 0.00 0.00 46 1006.7
20260504220512 26 252 4.8 14.5 0.00 0.00 0.00 45 1006.8
20260504220028 26 252 3.2 27.4 0.00 0.00 0.00 47 1006.9
20260504215510 26 233 9.7 27.4 0.00 0.00 0.00 45 1006.9
20260504215012 26 163 4.8 14.5 0.00 0.00 0.00 48 1006.8
20260504214530 26 224 6.4 14.5 0.00 0.00 0.00 43 1006.8
20260504214010 26 139 6.4 14.5 0.00 0.00 0.00 47 1006.9
20260504213516 26 142 3.2 9.7 0.00 0.00 0.00 45 1007.2
20260504213040 26 81 3.2 16.1 0.00 0.00 0.00 43 1007.5
20260504212513 26 133 4.8 16.1 0.00 0.00 0.00 44 1007.6
20260504212012 26 234 4.8 24.1 0.00 0.00 0.00 45 1007.7
20260504211533 26 279 1.6 24.1 0.00 0.00 0.00 44 1007.7
20260504211012 26 240 4.8 12.9 0.00 0.00 0.00 44 1007.9
20260504210511 26 101 4.8 19.3 0.00 0.00 0.00 42 1007.9
20260504210026 26 110 4.8 19.3 0.00 0.00 0.00 41 1007.8
20260504205513 26 151 8.0 19.3 0.00 0.00 0.00 41 1007.9
20260504205011 26 101 6.4 20.9 0.00 0.00 0.00 42 1007.9
20260504204540 26 243 6.4 20.9 0.00 0.00 0.00 42 1007.9
20260504204016 26 259 6.4 19.3 0.00 0.00 0.00 39 1008.0
20260504203515 26 221 4.8 19.3 0.00 0.00 0.00 41 1007.9
20260504203030 26 231 4.8 14.5 0.00 0.00 0.00 43 1007.8
20260504202510 27 218 6.4 16.1 0.00 0.00 0.00 42 1007.8
20260504202012 27 256 4.8 17.7 0.00 0.00 0.00 45 1007.7
20260504201527 26 146 8.0 17.7 0.00 0.00 0.00 42 1007.7
20260504201013 26 276 6.4 16.1 0.00 0.00 0.00 44 1007.8
20260504200510 26 252 6.4 14.5 0.00 0.00 0.00 42 1007.7
20260504200031 26 245 6.4 20.9 0.00 0.00 0.00 42 1007.6
20260504195511 26 28 8.0 22.5 0.00 0.00 0.00 42 1007.5
20260504195012 26 99 8.0 22.5 0.00 0.00 0.00 44 1007.6
20260504194528 27 212 6.4 17.7 0.00 0.00 0.00 43 1007.7
20260504194010 26 240 6.4 19.3 0.00 0.00 0.00 44 1007.8
20260504193513 26 225 8.0 19.3 0.00 0.00 0.00 42 1007.9
20260504193027 26 257 4.8 17.7 0.00 0.00 0.00 40 1007.8
20260504192510 27 200 6.4 17.7 0.00 0.00 0.00 43 1008.0
20260504192013 27 136 6.4 17.7 0.00 0.00 0.00 41 1008.0
20260504191526 27 200 6.4 16.1 0.00 0.00 0.00 44 1007.8
20260504191011 26 248 6.4 16.1 0.00 0.00 0.00 41 1007.7
20260504190510 27 257 4.8 16.1 0.00 0.00 0.00 43 1007.8
20260504190027 27 205 6.4 16.1 0.00 0.00 0.00 45 1007.7
20260504185509 27 94 6.4 14.5 0.00 0.00 0.00 43 1007.6
20260504185011 27 290 6.4 20.9 0.00 0.00 0.00 44 1007.8
20260504184527 27 155 6.4 20.9 0.00 0.00 0.00 40 1007.8
20260504184008 27 172 8.0 17.7 0.00 0.00 0.00 43 1007.8
20260504183030 27 352 4.8 14.5 0.00 0.00 0.00 43 1008.0
20260504182511 27 233 4.8 12.9 0.00 0.00 0.00 44 1008.0
20260504182015 27 113 4.8 16.1 0.00 0.00 0.00 41 1008.1
20260504181526 27 301 4.8 24.1 0.00 0.00 0.00 42 1008.2
20260504181013 27 218 8.0 24.1 0.00 0.00 0.00 43 1008.2
20260504180511 26 217 4.8 19.3 0.00 0.00 0.00 43 1008.1
20260504180028 26 285 4.8 19.3 0.00 0.00 0.00 42 1008.4
20260504175510 26 205 6.4 20.9 0.00 0.00 0.00 44 1008.4
20260504175011 26 292 9.7 20.9 0.00 0.00 0.00 43 1008.7
20260504174526 27 248 6.4 14.5 0.00 0.00 0.00 45 1008.9
20260504174013 26 297 4.8 19.3 0.00 0.00 0.00 43 1008.8
20260504173512 26 217 6.4 19.3 0.00 0.00 0.00 48 1009.0
20260504173029 26 295 9.7 19.3 0.00 0.00 0.00 43 1009.2
20260504172509 26 230 6.4 16.1 0.00 0.00 0.00 46 1009.3
20260504171526 26 233 6.4 19.3 0.00 0.00 0.00 49 1009.3
20260504171016 26 255 6.4 19.3 0.00 0.00 0.00 47 1009.3
20260504170510 26 278 4.8 20.9 0.00 0.00 0.00 47 1009.3
20260504151015 23 84 3.2 11.3 0.00 0.00 0.00 60 1010.0
20260504150515 23 221 3.2 11.3 0.00 0.00 0.00 61 1010.0
20260504141010 20 237 3.2 11.3 0.00 0.00 0.00 69 1011.1
20260504140511 20 0 1.6 9.7 0.00 0.00 0.00 71 1011.0
20260504130511 17 218 1.6 8.0 0.00 0.00 0.00 75 1011.0
20260504110509 15 0 0.0 0.0 0.00 0.00 0.00 77 1010.8
20260504100510 16 117 0.0 4.8 0.00 0.00 0.00 73 1010.6